Tracking 29493 objects as of 9-Sep-2024
HD Live streaming from Space Station
objects crossing your sky now

FENGYUN 1C DEB

Track FENGYUN 1C DEB now!
10-day predictions


NORAD ID: 35242
Int'l Code: 1999-025DRA
Perigee: 847.7 km
Apogee: 1,309.7 km
Inclination: 100.0 °
Period: 106.7 minutes
Semi major axis: 7449 km
RCS: 0.0022 m2 (small)
Launch date: May 10, 1999
Source: People's Republic of China (PRC)
Launch site: Taiyaun Space Center, China (TSC)

Note: This is SATELLITE DEBRIS
Your satellite tracking list
Your tracking list is empty




NASA's NSSDC Master Catalog

Two Line Element Set (TLE):
1 35242U 99025DRA 24251.06614962  .00003405  00000-0  40131-2 0  9992
2 35242  99.9879 295.1470 0310062 246.7031 142.8739 13.50192416518912
Source of the keplerian elements: AFSPC